Tracking 29487 objects as of 10-Sep-2024
HD Live streaming from Space Station
objects crossing your sky now

FENGYUN 1C DEB

Track FENGYUN 1C DEB now!
10-day predictions


NORAD ID: 30561
Int'l Code: 1999-025ALB
Perigee: 822.1 km
Apogee: 908.9 km
Inclination: 98.7 °
Period: 102.1 minutes
Semi major axis: 7236 km
RCS: 0.0205 m2 (small)
Launch date: May 10, 1999
Source: People's Republic of China (PRC)
Launch site: Taiyaun Space Center, China (TSC)

Note: This is SATELLITE DEBRIS
Your satellite tracking list
Your tracking list is empty




NASA's NSSDC Master Catalog

Two Line Element Set (TLE):
1 30561U 99025ALB 24253.70028271  .00002503  00000-0  14115-2 0  9997
2 30561  98.7280 262.9927 0059998 337.6758  88.6243 14.10292864905054
Source of the keplerian elements: AFSPC